Time,TemperatureF,DewpointF,PressureIn,WindDirection,WindDirectionDegrees,WindSpeedMPH,WindSpeedGustMPH,Humidity,HourlyPrecipIn,Conditions,Clouds,dailyrainin,SoftwareType,DateUTC
2013-03-17 00:02:00,69.6,34.0,29.74,SSE,165,5.0,-999.0,27,-99.99,,,0.00,weatherlink.com 1.10,2013-03-17 07:02:00,
2013-03-17 00:17:00,69.4,34.0,29.75,SSE,164,0.0,-999.0,27,-99.99,,,0.00,weatherlink.com 1.10,2013-03-17 07:17:00,
2013-03-17 00:32:00,68.8,33.0,29.75,SSE,164,0.0,-999.0,27,-99.99,,,0.00,weatherlink.com 1.10,2013-03-17 07:32:00,
2013-03-17 00:47:00,68.2,34.0,29.75,SSE,164,0.0,-999.0,28,-99.99,,,0.00,weatherlink.com 1.10,2013-03-17 07:47:00,
2013-03-17 01:02:00,67.2,34.0,29.75,SSE,164,0.0,-999.0,29,-99.99,,,0.00,weatherlink.com 1.10,2013-03-17 08:02:00,
2013-03-17 01:32:00,64.3,34.0,29.74,SSE,164,0.0,-999.0,33,-99.99,,,0.00,weatherlink.com 1.10,2013-03-17 08:32:00,
2013-03-17 01:47:00,63.6,34.0,29.75,SSE,164,0.0,-999.0,33,-99.99,,,0.00,weatherlink.com 1.10,2013-03-17 08:47:00,
2013-03-17 02:02:00,64.1,34.0,29.75,SSE,164,0.0,-999.0,33,-99.99,,,0.00,weatherlink.com 1.10,2013-03-17 09:02:00,
2013-03-17 02:17:00,64.7,35.0,29.75,SSE,164,0.0,-999.0,33,-99.99,,,0.00,weatherlink.com 1.10,2013-03-17 09:17:00,
2013-03-17 02:32:00,64.9,35.0,29.74,SSE,164,4.0,-999.0,33,-99.99,,,0.00,weatherlink.com 1.10,2013-03-17 09:32:00,
2013-03-17 02:47:00,64.3,34.0,29.74,SSE,164,0.0,-999.0,33,-99.99,,,0.00,weatherlink.com 1.10,2013-03-17 09:47:00,
2013-03-17 03:02:00,63.2,34.0,29.74,SSE,164,0.0,-999.0,34,-99.99,,,0.00,weatherlink.com 1.10,2013-03-17 10:02:00,
2013-03-17 03:17:00,63.2,35.0,29.74,SSE,164,0.0,-999.0,35,-99.99,,,0.00,weatherlink.com 1.10,2013-03-17 10:17:00,
2013-03-17 03:32:00,63.3,35.0,29.75,SSE,164,0.0,-999.0,35,-99.99,,,0.00,weatherlink.com 1.10,2013-03-17 10:32:00,
2013-03-17 03:47:00,63.1,35.0,29.75,SSE,164,1.0,-999.0,35,-99.99,,,0.00,weatherlink.com 1.10,2013-03-17 10:47:00,
2013-03-17 04:04:00,61.9,34.0,29.76,SSE,164,0.0,-999.0,36,-99.99,,,0.00,weatherlink.com 1.10,2013-03-17 11:04:00,
2013-03-17 04:17:00,61.1,34.0,29.76,SSE,164,2.0,-999.0,37,-99.99,,,0.00,weatherlink.com 1.10,2013-03-17 11:17:00,
2013-03-17 04:32:00,61.0,34.0,29.76,SSE,164,0.0,-999.0,37,-99.99,,,0.00,weatherlink.com 1.10,2013-03-17 11:32:00,
2013-03-17 04:47:00,60.6,34.0,29.77,SSE,164,0.0,-999.0,37,-99.99,,,0.00,weatherlink.com 1.10,2013-03-17 11:47:00,
2013-03-17 05:02:00,58.6,34.0,29.77,SSE,164,0.0,-999.0,40,-99.99,,,0.00,weatherlink.com 1.10,2013-03-17 12:02:00,
2013-03-17 05:17:00,58.3,33.0,29.76,SSE,164,4.0,-999.0,39,-99.99,,,0.00,weatherlink.com 1.10,2013-03-17 12:17:00,
2013-03-17 05:32:00,58.9,32.0,29.78,SSE,164,0.0,-999.0,37,-99.99,,,0.00,weatherlink.com 1.10,2013-03-17 12:32:00,
2013-03-17 05:47:00,57.8,33.0,29.78,SSE,164,0.0,-999.0,40,-99.99,,,0.00,weatherlink.com 1.10,2013-03-17 12:47:00,
2013-03-17 06:02:00,57.6,33.0,29.79,SSE,164,0.0,-999.0,40,-99.99,,,0.00,weatherlink.com 1.10,2013-03-17 13:02:00,
2013-03-17 06:17:00,56.8,34.0,29.79,SSE,164,0.0,-999.0,42,-99.99,,,0.00,weatherlink.com 1.10,2013-03-17 13:17:00,
2013-03-17 06:32:00,56.6,34.0,29.80,SSE,156,0.0,-999.0,43,-99.99,,,0.00,weatherlink.com 1.10,2013-03-17 13:32:00,
2013-03-17 06:48:00,56.0,34.0,29.81,SSE,156,0.0,-999.0,44,-99.99,,,0.00,weatherlink.com 1.10,2013-03-17 13:48:00,
2013-03-17 07:04:00,55.3,35.0,29.81,SSE,156,0.0,-999.0,46,-99.99,,,0.00,weatherlink.com 1.10,2013-03-17 14:04:00,
2013-03-17 07:18:00,57.5,34.0,29.82,SSE,156,0.0,-999.0,42,-99.99,,,0.00,weatherlink.com 1.10,2013-03-17 14:18:00,
2013-03-17 07:33:00,60.0,35.0,29.83,SSE,156,0.0,-999.0,39,-99.99,,,0.00,weatherlink.com 1.10,2013-03-17 14:33:00,
2013-03-17 07:48:00,61.1,35.0,29.84,SSE,156,0.0,-999.0,38,-99.99,,,0.00,weatherlink.com 1.10,2013-03-17 14:48:00,
2013-03-17 08:03:00,62.5,35.0,29.85,SSE,156,0.0,-999.0,36,-99.99,,,0.00,weatherlink.com 1.10,2013-03-17 15:03:00,
2013-03-17 08:18:00,64.5,36.0,29.86,SSE,156,0.0,-999.0,35,-99.99,,,0.00,weatherlink.com 1.10,2013-03-17 15:18:00,
2013-03-17 08:34:00,66.6,36.0,29.86,SSE,156,0.0,-999.0,33,-99.99,,,0.00,weatherlink.com 1.10,2013-03-17 15:34:00,
2013-03-17 08:48:00,69.0,36.0,29.87,SSE,156,0.0,-999.0,30,-99.99,,,0.00,weatherlink.com 1.10,2013-03-17 15:48:00,
2013-03-17 09:04:00,71.8,33.0,29.87,WNW,285,2.0,-999.0,24,-99.99,,,0.00,weatherlink.com 1.10,2013-03-17 16:04:00,
2013-03-17 09:18:00,73.8,33.0,29.87,NNW,334,6.0,-999.0,22,-99.99,,,0.00,weatherlink.com 1.10,2013-03-17 16:18:00,
2013-03-17 09:34:00,75.0,32.0,29.87,NW,309,3.0,-999.0,21,-99.99,,,0.00,weatherlink.com 1.10,2013-03-17 16:34:00,
2013-03-17 09:49:00,76.2,32.0,29.87,NW,313,0.0,-999.0,20,-99.99,,,0.00,weatherlink.com 1.10,2013-03-17 16:49:00,
2013-03-17 10:03:00,77.3,33.0,29.88,NW,310,6.0,-999.0,20,-99.99,,,0.00,weatherlink.com 1.10,2013-03-17 17:03:00,
2013-03-17 10:19:00,78.5,32.0,29.88,NNW,340,7.0,-999.0,18,-99.99,,,0.00,weatherlink.com 1.10,2013-03-17 17:19:00,
2013-03-17 10:33:00,79.2,29.0,29.88,WNW,302,7.0,-999.0,16,-99.99,,,0.00,weatherlink.com 1.10,2013-03-17 17:33:00,
2013-03-17 10:49:00,79.8,30.0,29.89,NNW,343,8.0,-999.0,16,-99.99,,,0.00,weatherlink.com 1.10,2013-03-17 17:49:00,
2013-03-17 11:04:00,80.5,29.0,29.88,WNW,292,8.0,-999.0,15,-99.99,,,0.00,weatherlink.com 1.10,2013-03-17 18:04:00,
2013-03-17 11:18:00,81.5,24.0,29.88,NNW,334,3.0,-999.0,12,-99.99,,,0.00,weatherlink.com 1.10,2013-03-17 18:18:00,
2013-03-17 11:34:00,82.3,27.0,29.87,WNW,300,3.0,-999.0,13,-99.99,,,0.00,weatherlink.com 1.10,2013-03-17 18:34:00,
2013-03-17 11:49:00,82.0,28.0,29.86,WNW,292,3.0,-999.0,14,-99.99,,,0.00,weatherlink.com 1.10,2013-03-17 18:49:00,
2013-03-17 12:03:00,82.5,27.0,29.86,WNW,292,6.0,-999.0,13,-99.99,,,0.00,weatherlink.com 1.10,2013-03-17 19:03:00,
2013-03-17 12:19:00,84.2,17.0,29.86,North,355,10.0,-999.0,8,-99.99,,,0.00,weatherlink.com 1.10,2013-03-17 19:19:00,
2013-03-17 12:34:00,84.3,17.0,29.86,North,360,9.0,-999.0,8,-99.99,,,0.00,weatherlink.com 1.10,2013-03-17 19:34:00,
2013-03-17 12:49:00,84.7,17.0,29.86,NNW,340,3.0,-999.0,8,-99.99,,,0.00,weatherlink.com 1.10,2013-03-17 19:49:00,
2013-03-17 13:04:00,84.8,14.0,29.85,WNW,284,4.0,-999.0,7,-99.99,,,0.00,weatherlink.com 1.10,2013-03-17 20:04:00,
2013-03-17 13:19:00,84.8,11.0,29.84,North,5,7.0,-999.0,6,-99.99,,,0.00,weatherlink.com 1.10,2013-03-17 20:19:00,
2013-03-17 13:34:00,85.5,11.0,29.84,NW,311,7.0,-999.0,6,-99.99,,,0.00,weatherlink.com 1.10,2013-03-17 20:34:00,
2013-03-17 13:49:00,86.2,8.0,29.83,NNW,335,5.0,-999.0,5,-99.99,,,0.00,weatherlink.com 1.10,2013-03-17 20:49:00,
2013-03-17 14:04:00,85.9,2.0,29.82,NNW,342,8.0,-999.0,4,-99.99,,,0.00,weatherlink.com 1.10,2013-03-17 21:04:00,
2013-03-17 14:19:00,86.0,2.0,29.82,North,360,9.0,-999.0,4,-99.99,,,0.00,weatherlink.com 1.10,2013-03-17 21:19:00,
2013-03-17 14:34:00,87.2,12.0,29.81,NNW,333,5.0,-999.0,6,-99.99,,,0.00,weatherlink.com 1.10,2013-03-17 21:34:00,
2013-03-17 14:49:00,86.9,16.0,29.81,NW,319,6.0,-999.0,7,-99.99,,,0.00,weatherlink.com 1.10,2013-03-17 21:49:00,
2013-03-17 15:04:00,87.5,8.0,29.80,North,355,7.0,-999.0,5,-99.99,,,0.00,weatherlink.com 1.10,2013-03-17 22:04:00,
2013-03-17 15:19:00,85.8,15.0,29.80,WNW,299,0.0,-999.0,7,-99.99,,,0.00,weatherlink.com 1.10,2013-03-17 22:19:00,
2013-03-17 15:34:00,86.5,15.0,29.80,West,277,0.0,-999.0,7,-99.99,,,0.00,weatherlink.com 1.10,2013-03-17 22:34:00,
2013-03-17 15:49:00,86.7,12.0,29.79,NW,318,5.0,-999.0,6,-99.99,,,0.00,weatherlink.com 1.10,2013-03-17 22:49:00,
2013-03-17 16:04:00,86.1,15.0,29.79,NNW,342,1.0,-999.0,7,-99.99,,,0.00,weatherlink.com 1.10,2013-03-17 23:04:00,
2013-03-17 16:19:00,86.8,12.0,29.79,NW,309,7.0,-999.0,6,-99.99,,,0.00,weatherlink.com 1.10,2013-03-17 23:19:00,
2013-03-17 16:34:00,86.4,12.0,29.79,NW,316,2.0,-999.0,6,-99.99,,,0.00,weatherlink.com 1.10,2013-03-17 23:34:00,
2013-03-17 16:49:00,86.9,16.0,29.79,WNW,298,5.0,-999.0,7,-99.99,,,0.00,weatherlink.com 1.10,2013-03-17 23:49:00,
2013-03-17 17:04:00,86.2,15.0,29.79,WNW,303,3.0,-999.0,7,-99.99,,,0.00,weatherlink.com 1.10,2013-03-18 00:04:00,
2013-03-17 17:19:00,86.3,15.0,29.79,WNW,298,9.0,-999.0,7,-99.99,,,0.00,weatherlink.com 1.10,2013-03-18 00:19:00,
2013-03-17 17:34:00,85.7,11.0,29.79,NNW,342,5.0,-999.0,6,-99.99,,,0.00,weatherlink.com 1.10,2013-03-18 00:34:00,
2013-03-17 17:50:00,84.9,11.0,29.79,WNW,297,0.0,-999.0,6,-99.99,,,0.00,weatherlink.com 1.10,2013-03-18 00:50:00,
2013-03-17 18:04:00,84.6,10.0,29.79,NW,312,0.0,-999.0,6,-99.99,,,0.00,weatherlink.com 1.10,2013-03-18 01:04:00,
2013-03-17 18:19:00,83.8,10.0,29.80,WSW,255,0.0,-999.0,6,-99.99,,,0.00,weatherlink.com 1.10,2013-03-18 01:19:00,
2013-03-17 18:34:00,82.3,12.0,29.80,WSW,255,1.0,-999.0,7,-99.99,,,0.00,weatherlink.com 1.10,2013-03-18 01:34:00,
2013-03-17 18:49:00,80.8,14.0,29.79,WSW,255,0.0,-999.0,8,-99.99,,,0.00,weatherlink.com 1.10,2013-03-18 01:49:00,
2013-03-17 19:04:00,78.9,15.0,29.80,WSW,255,0.0,-999.0,9,-99.99,,,0.00,weatherlink.com 1.10,2013-03-18 02:04:00,
2013-03-17 19:19:00,76.4,18.0,29.80,WSW,255,0.0,-999.0,11,-99.99,,,0.00,weatherlink.com 1.10,2013-03-18 02:19:00,
2013-03-17 19:34:00,74.0,20.0,29.80,WSW,255,0.0,-999.0,13,-99.99,,,0.00,weatherlink.com 1.10,2013-03-18 02:34:00,
2013-03-17 19:50:00,71.7,20.0,29.81,WSW,255,0.0,-999.0,14,-99.99,,,0.00,weatherlink.com 1.10,2013-03-18 02:50:00,
2013-03-17 20:04:00,70.2,20.0,29.81,WSW,255,0.0,-999.0,15,-99.99,,,0.00,weatherlink.com 1.10,2013-03-18 03:04:00,
2013-03-17 20:19:00,68.6,22.0,29.81,WSW,255,0.0,-999.0,17,-99.99,,,0.00,weatherlink.com 1.10,2013-03-18 03:19:00,
2013-03-17 20:34:00,67.5,21.0,29.81,WSW,255,0.0,-999.0,17,-99.99,,,0.00,weatherlink.com 1.10,2013-03-18 03:34:00,
2013-03-17 20:50:00,66.7,20.0,29.81,WSW,255,0.0,-999.0,17,-99.99,,,0.00,weatherlink.com 1.10,2013-03-18 03:50:00,
2013-03-17 21:05:00,65.9,21.0,29.81,WSW,255,0.0,-999.0,18,-99.99,,,0.00,weatherlink.com 1.10,2013-03-18 04:05:00,
2013-03-17 21:20:00,66.4,20.0,29.82,WSW,255,0.0,-999.0,17,-99.99,,,0.00,weatherlink.com 1.10,2013-03-18 04:20:00,
2013-03-17 21:35:00,66.2,20.0,29.82,WSW,255,0.0,-999.0,17,-99.99,,,0.00,weatherlink.com 1.10,2013-03-18 04:35:00,
2013-03-17 21:50:00,66.0,20.0,29.82,WSW,255,0.0,-999.0,17,-99.99,,,0.00,weatherlink.com 1.10,2013-03-18 04:50:00,
2013-03-17 22:05:00,66.1,18.0,29.83,WSW,255,0.0,-999.0,16,-99.99,,,0.00,weatherlink.com 1.10,2013-03-18 05:05:00,
2013-03-17 22:20:00,66.2,19.0,29.83,WSW,255,0.0,-999.0,16,-99.99,,,0.00,weatherlink.com 1.10,2013-03-18 05:20:00,
2013-03-17 22:35:00,65.2,19.0,29.84,WSW,255,0.0,-999.0,17,-99.99,,,0.00,weatherlink.com 1.10,2013-03-18 05:35:00,
2013-03-17 22:50:00,63.7,19.0,29.84,WSW,255,1.0,-999.0,18,-99.99,,,0.00,weatherlink.com 1.10,2013-03-18 05:50:00,
2013-03-17 23:05:00,64.1,20.0,29.84,WSW,255,0.0,-999.0,18,-99.99,,,0.00,weatherlink.com 1.10,2013-03-18 06:05:00,
2013-03-17 23:20:00,61.9,20.0,29.84,WSW,255,0.0,-999.0,20,-99.99,,,0.00,weatherlink.com 1.10,2013-03-18 06:20:00,
2013-03-17 23:35:00,64.2,20.0,29.84,South,171,2.0,-999.0,18,-99.99,,,0.00,weatherlink.com 1.10,2013-03-18 06:35:00,
2013-03-17 23:50:00,64.3,18.0,29.84,South,170,2.0,-999.0,17,-99.99,,,0.00,weatherlink.com 1.10,2013-03-18 06:50:00,